Погода в Больших Шадах

Россия / Республика Башкортостан     55°39′28″N   55°48′46″E
В апреле 2022 года жителям России запретили посещать сайт meteo.paraplan.net по решению Генеральной прокуратуры. Аудитория сайта уменьшилась в 10 раз. Владельцы сайта не видят смысла в поддержке погодного сервера в таких условиях. Сайт будет закрыт в октябре.
темп.,
°C
ветер,
м/с
пор.,
м/с
влажн.,
%
обл.,
%
осадки,
мм/ч
давл.,
гПа
погр.,
м
3 октября, пн
пн323:00+12ю81743100 0.0 1020637
02:00+11ю81643100 0.0 1021597
05:00+11ю81645100 0.0 1021529
08:00+11ю7144499 0.0 1021490
11:00+11ю71444100 0.3 1022490
14:00+13ю7134099 0.0 1023677
17:00+16ююз7113643 0.0 1023881
20:00+12ю5134448 0.0 1025334
4 октября, вт
вт423:00+11ю5134467 0.0 1026336
02:00+10ю513475 0.0 1027307
05:00+8ю412516 0.0 1029241
08:00+7ююв412535 0.0 1029237
11:00+12ю610335 0.0 1030521
14:00+15ю68250 0.0 1030838
17:00+14ю5829100 0.0 1030652
20:00+11ююв3935100 0.0 1031205
5 октября, ср
ср523:00+8ююв3440100 0.0 103162
02:00+7ююв3114047 0.0 1031238
05:00+8ююв51239100 0.0 1031303
08:00+8ю4939100 0.0 1031255
11:00+11ююв4532100 0.0 1030379
14:00+11ююв61133100 0.0 1028413
17:00+12ю61230100 0.0 1028604
20:00+11ю61333100 0.0 1028481
6 октября, чт
чт623:00+10ю51233100 0.0 1026446
02:00+9ю61044100 0.1 1025496
05:00+8юв2759100 0.3 1023234
08:00+9ююв41044100 0.0 1021297
11:00+10ююз51141100 0.1 1020580
14:00+10ю51046100 0.5 1019711
17:00+9ююз81371100 1.2 10181063
20:00+7ююз5978100 0.3 1017460
7 октября, пт
пт723:00+8ю4886100 0.3 1016408
02:00+7ююз3690100 0.4 1015384
05:00+7юз359491 1.0 1014265
08:00+7зсз5887100 0.6 1013533
11:00+8з576917 0.6 1013930
14:00+9з6758100 0.1 10121467
17:00+10юз5856100 0.1 10111419
20:00+7ююз41085100 0.4 1011732